OneWeb SL0538

operational
NORAD ID: 56047 Int'l Des: 2023-043 Owner: ONEWEBN Country: UK Constellation: oneweb
LEOCIRCULARPOLARONEWEB_TYPE

关于 OneWeb SL0538

正在加载描述...

实时位置

正在加载3D地球...

即将过境

高度历史

Altitude vs Time

uPlot chart will show altitude changes over time

两行轨道根数

1 56047U 23043B 25305.42537919 .00000088 00000-0 19675-3 0 9996
2 56047 87.8988 274.1410 0002233 83.2788 276.8597 13.16595549129001
Epoch: Nov 1, 2025 • Age: 20 hours

当前状态

高度 1228.3 km
速度 7.24 km/s
星下点 -87.90°S, 60.34°E
发射日期 Mar 26, 2023
运行时间 2.6 years
类型 internet

技术详情

分类 Payload
质量 148.00 kg
干质量 140.00 kg
总质量 148.00 kg
长度 1.30 m
直径 1.00 m
跨度 5.00 m
形状 Trapezoid+2 pan
制造商 ONEWUS
平台类型 ARROW
阶段状态 In Orbit
所有者/国家 ONEWEBN/UK

大型星座

Loading constellations...